Location: Bailleul
(50.3375°N, 2.8513°E)
Time: 01:26:32
(UTC+00:00)

Cosmos 1867 - Pass Details

Date: 25 October 2021
Orbit: 773 x 803 km, 65.0° (Epoch: 30 November)

Event Time Altitude Azimuth Distance (km) Brightness Sun altitude
Rises 05:11:11 0° 194° (SSW) 3,276 6.7 -12.8°
Reaches altitude 10° 05:13:42 10° 187° (S) 2,356 6.0 -12.4°
Maximum altitude 05:18:44 41° 119° (ESE) 1,155 5.0 -11.6°
Drops below altitude 10° 05:23:50 10° 51° (NE) 2,385 6.7 -10.7°
Sets 05:26:23 0° 44° (NE) 3,322 7.4 -10.3°
